User: anonymous   Login
Location: Unspecified
(0.0000°N, 0.0000°E)
Time: 13:53:01
(UTC+00:00)
Language:

TACSAT 4 - Orbit

View from above orbital plane
View from above orbital plane
View from above satellite
View from above satellite

Ground track
Ground track

The orbit data is extracted from the following two-line orbital elements,

1 37818U 11052A   17323.66851164 -.00000000 +00000-0 +12281-3 0  9997
2 37818 063.2958 016.3279 4541615 214.6541 335.1107 06.02809147135218
Epoch (UTC): 19 November 2017 16:02:39
Eccentricity: 0.4541615
inclination: 63.2958°
perigee height: 583 km
apogee height: 12167 km
right ascension of ascending node: 16.3279°
argument of perigee: 214.6541°
revolutions per day: 6.02809147
mean anomaly at epoch: 335.1107°
orbit number at epoch: 13521

The dashed part of the orbit path shows where the satellite is in the earth's shadow,  

DLR